Home   Weather   Finse   Past weeks

Flag for Norway Past Weather in Finse, Norway — Yesterday and Last 2 Weeks

Now
47 °F

Cool.


Feels Like: 47 °F
Forecast: 46 / 50 °F
Wind: 1 mph from West

Location: Finsevatn

Current Time: Jul 26, 2017 at 2:55:16 am

Latest Report: Jul 26, 2017 at 2:00 am


Visibility: N/A

Pressure: 29.90 "Hg (25.78 "Hg at 1221m altitude)

Humidity: 88%

Dew Point: 43 °F

Location of FinseLocation

Past Weather in Finse — Graph

°F

Finse Temperature Yesterday

Maximum temperature yesterday: 57 °F (at 3:00 pm)
Minimum temperature yesterday: 45 °F (at 5:00 am)
Average temperature yesterday: 50 °F

High & Low Weather Summary for the Past Weeks

 TemperatureHumidityPressure
High63 °F (Jul 20, 5:00 pm)93% (Jul 17, 11:00 pm)30.18 "Hg (Jul 17, 11:00 pm)
Low33 °F (Jul 17, 3:00 am)28% (Jul 19, 5:00 pm)29.50 "Hg (Jul 11, 3:00 pm)
Average46 °F74%29.90 "Hg
* Reported Jul 11 1:00 am — Jul 26 1:00 am, Finse. Weather by CustomWeather, © 2017

Note: Actual official high and low records may vary slightly from our data, if they occured in-between our weather recording intervals... More about our weather records

Advertising

Finse Weather History for the Previous 24 Hours

Scroll right to see more
 ConditionsComfort  
Time TempWeatherWind HumidityBarometerVisibility
1:00 am
Wed, Jul 26
47 °FCool.1 mph88%29.91 "HgN/A
12:00 am47 °FCool.1 mph90%29.91 "HgN/A
11:00 pm
Tue, Jul 25
47 °FCool.No wind89%29.92 "HgN/A
10:00 pm49 °FCool.2 mph82%29.91 "HgN/A
9:00 pm50 °FCool.1 mph80%29.90 "HgN/A
8:00 pm51 °FCool.2 mph78%29.90 "HgN/A
7:00 pm51 °FCool.1 mph82%29.90 "HgN/A
6:00 pm56 °FRefreshingly cool.2 mph52%29.85 "HgN/A
5:00 pm56 °FRefreshingly cool.2 mph49%29.86 "HgN/A
4:00 pm56 °FRefreshingly cool.2 mph58%29.88 "HgN/A
3:00 pm57 °FRefreshingly cool.2 mph48%29.87 "HgN/A
2:00 pm54 °FCool.2 mph58%29.90 "HgN/A
1:00 pm54 °FCool.2 mph58%29.90 "HgN/A
12:00 pm52 °FCool.2 mph67%29.92 "HgN/A
11:00 am51 °FCool.3 mph71%29.93 "HgN/A
10:00 am50 °FCool.3 mph76%29.95 "HgN/A
9:00 am50 °FCool.No wind80%29.96 "HgN/A
8:00 am47 °FCool.No wind85%29.98 "HgN/A
7:00 am46 °FCool.No wind90%30.00 "HgN/A
6:00 am45 °FCool.1 mph89%30.01 "HgN/A
5:00 am45 °FQuite cool.1 mph91%30.01 "HgN/A
4:00 am45 °FCool.1 mph90%30.01 "HgN/A
3:00 am46 °FCool.1 mph89%30.01 "HgN/A
2:00 am47 °FCool.No wind88%30.01 "HgN/A
Weather by CustomWeather, © 2017

See weather overviewHow to use our weather pages